Regional Weather Roundup
Issued by NWS

Home | Current Version | Previous Version | Graphics & Text | Print | Product List | Glossary On
Versions: 1 2 3 4 5 6 7 8 9 10 11 12 13 14 15 16 17 18 19 20 21 22 23 24 25 26 27 28 29 30 31 32 33 34 35 36 37 38 39 40 41 42 43 44 45 46 47 48 49 50
000
ASUS43 KMKX 211459
RWRWI

WISCONSIN REGIONAL WEATHER ROUNDUP
NATIONAL WEATHER SERVICE MILWAUKEE/SULLIVAN WI
1000 AM CDT SAT APR 21 2018

NOTE: "FAIR" INDICATES FEW OR NO CLOUDS BELOW 12,000 FEET WITH NO
SIGNIFICANT WEATHER AND/OR OBSTRUCTIONS TO VISIBILITY.

WIZ001-002-006>008-014>016-023>028-211600-
NORTHWEST WISCONSIN

CITY           SKY/WX    TMP DP  RH WIND       PRES   REMARKS
SUPERIOR ARPT  FAIR      48  26  42 SW5       30.42F
ASHLAND        FAIR      49  21  33 SW5       30.42F
HAYWARD        FAIR      48  22  35 CALM      30.42F
SIREN          FAIR      47  20  34 CALM      30.43F
CUMBERLAND     FAIR      39  19  45 CALM      30.42F
RICE LAKE      FAIR      40  25  54 CALM      30.45S
CHETEK         FAIR      43  22  43 CALM      30.43F
LADYSMITH      FAIR      48  20  32 CALM      30.44S
EAU CLAIRE     NOT AVBL
MENOMONIE      FAIR      44  27  51 CALM      30.43S
NEW RICHMOND   FAIR      43  27  53 CALM      30.43F
OSCEOLA        FAIR      45  27  49 CALM      30.46S
$$

WIZ003>005-009-010-017-018-211600-
NORTH CENTRAL WISCONSIN

CITY           SKY/WX    TMP DP  RH WIND       PRES   REMARKS
MANITOWISH WTR FAIR      45  19  35 CALM      30.41F
ARBOR VITAE    FAIR      46  17  32 CALM      30.41F
WOODRUFF       FAIR      46  17  32 CALM      30.41F
RHINELANDER    FAIR      51  16  24 CALM      30.41F
EAGLE RIVER    FAIR      49  16  27 CALM      30.40F
LAND O LAKES   FAIR      52  16  23 CALM      30.41F
PHILLIPS       FAIR      47  21  35 CALM      30.41F
TOMAHAWK       FAIR      48  17  28 CALM      30.43S
MEDFORD        FAIR      43  19  37 CALM      30.42S
MERRILL          N/A     44  22  43 CALM      30.44S
$$

WIZ029-030-035-036-043>047-211600-
CENTRAL WISCONSIN

CITY           SKY/WX    TMP DP  RH WIND       PRES   REMARKS
WAUSAU         FAIR      44  22  41 CALM      30.42S
MOSINEE        PTSUNNY   45  23  42 CALM      30.44S
MARSHFIELD     FAIR      45  21  38 SE3       30.42S
STEVENS POINT  FAIR      42  20  40 CALM      30.44F
WAUPACA        FAIR      45  24  43 CALM      30.46R
WAUTOMA        FAIR      43  23  45 CALM      30.46R
WISC RAPIDS    FAIR      45  19  35 SW5       30.44F
CAMP DOUGLAS   NOT AVBL
$$

WIZ011>013-019>022-031-037>040-048>050-211600-
NORTHEAST WISCONSIN

CITY           SKY/WX    TMP DP  RH WIND       PRES   REMARKS
ANTIGO         FAIR      41  21  44 CALM      30.43S
SHAWANO        FAIR      49  20  32 W3        30.44S
OCONTO         FAIR      45  21  39 CALM      30.44S
STURGEON BAY   FAIR      49  22  34 W6        30.44F
GREEN BAY      FAIR      42  25  50 SW5       30.45F
MANITOWOC      FAIR      47  18  31 W5        30.47S
APPLETON       PTSUNNY   45  19  36 CALM      30.44S
CLINTONVILLE   FAIR      43  20  40 CALM      30.44F
OSHKOSH        FAIR      40  27  59 S5        30.45S
$$

WIZ032>034-041-042-053>061-211600-
SOUTHWEST WISCONSIN

CITY           SKY/WX    TMP DP  RH WIND       PRES   REMARKS
LA CROSSE      FAIR      44  32  62 CALM      30.44S
SPARTA         FAIR      40  28  62 CALM      30.44F
VIROQUA        PTSUNNY   44  32  62 SW3       30.42S
BOSCOBEL       CLOUDY    43  32  65 CALM      30.45S
PRAIRIE DU CHI DRIZZLE   43  33  66 CALM      30.45S
PLATTEVILLE    CLOUDY    45  32  60 SE3       30.46R
$$

WIZ056-057-062-063-064-067-068-211600-
SOUTH CENTRAL WISCONSIN

CITY           SKY/WX    TMP DP  RH WIND       PRES   REMARKS
REEDSBURG      FAIR      38  29  69 CALM      30.44S
BARABOO/DELLS  CLOUDY    38  25  58 CALM      30.44F
LONE ROCK      NOT AVBL
MINERAL POINT  FAIR      46  21  36 SE5       30.45R
MADISON        CLOUDY    43  32  65 S3        30.45F
MIDDLETON      PTSUNNY   45  31  58 S3        30.45F
WATERTOWN      FAIR      41  25  53 CALM      30.46S
MONROE         PTSUNNY   45  19  36 CALM      30.45S
JANESVILLE     CLOUDY    48  19  32 CALM      30.46S
$$

WIZ051-052-058>065-066-070>072-211600-
SOUTHEAST WISCONSIN

CITY           SKY/WX    TMP DP  RH WIND       PRES   REMARKS
MILWAUKEE      CLOUDY    46  24  42 CALM      30.47S
WAUKESHA       MOSUNNY   39  23  52 CALM      30.47S
MILWAUKEE/TIMM MOSUNNY   41  25  52 CALM      30.48R
RACINE         FAIR      46  24  42 CALM      30.48R
BURLINGTON     FAIR      41  27  57 CALM      30.47R
KENOSHA        CLOUDY    45  25  45 CALM      30.47R
FOND DU LAC    FAIR      43  17  35 S5        30.46S
SHEBOYGAN      FAIR      47  26  44 S5        30.46S
WEST BEND      FAIR      41  23  48 CALM      30.47R
JUNEAU         FAIR      42  21  43 CALM      30.47R
$$

LSZ147-162-211600-
LAKE SUPERIOR

STATION/POSITION TIME  TEMP    WIND        PRES    WAVE
                       AIR SEA DIR/SP/G            HT/PER
                 (UTC) (F)     (DEG/KT/KT) (MB)    (FT/S)
DEVILS ISLAND    1400   40     230/ 10/ 12 1030.8S
SAXON HARBOR     1430          310/  5/  6 1029.5S
$$

LMZ867-665-643>646-211600-
LAKE MICHIGAN

STATION/POSITION TIME  TEMP    WIND        PRES    WAVE
                       AIR SEA DIR/SP/G            HT/PER
                 (UTC) (F)     (DEG/KT/KT) (MB)    (FT/S)
NORTHPORT PIER   1440   37                 1030.5S
KEWAUNEE LAKESHO 1430   39     170/  7/  8 1030.4R
SHEBOYGAN LAKESH 1400   42     180/  3/  3 1032.0S
PORT WASHINGTON  1440   42      CALM  /  2 1032.5S
MILWAUKEE LAKESH 1430   41        CALM       N/A
KENOSHA   LAKESH 1400   38                 1031.5
$$

TC  - TEMPERATURE IN CELSIUS
VSB - VISIBILITY IN STATUTE MILES
WCI - WIND CHILL INDEX
HX  - HEAT INDEX





USA.gov is the U.S. government's official web portal to all federal, state and local government web resources and services.